Location: Albany
(35.0170°S, 117.8920°E)
Time: 21:55:42
(UTC+08:00)

Tiros 1 despin weight - All Passes

Search period start: 23 January 2021 00:00
Search period end: 02 February 2021 00:00
Orbit: 594 x 641 km, 48.2° (Epoch: 22 January)

Date Brightness Start Highest point End Pass type
(mag) Time Alt. Az. Time Alt. Az. Time Alt. Az.
23 Jan - 01:02:20 10° N 01:05:24 18° NE 01:08:32 10° E visible
23 Jan - 02:42:00 10° WNW 02:46:32 71° SW 02:51:12 10° SE visible
23 Jan - 04:25:08 10° WSW 04:28:44 22° SSW 04:32:23 10° SE visible
23 Jan - 06:08:41 10° SW 06:11:39 16° S 06:14:37 10° SE daylight
23 Jan - 07:50:14 10° SW 07:54:24 30° SSE 07:58:34 10° E daylight
23 Jan - 09:31:34 10° WSW 09:36:15 65° NW 09:40:55 10° NE daylight
24 Jan - 01:17:21 10° NNW 01:21:31 38° NE 01:25:47 10° ESE visible
24 Jan - 02:58:45 10° W 03:03:03 40° SSW 03:07:28 10° SE visible
24 Jan - 04:42:30 10° SW 04:45:37 17° S 04:48:46 10° SSE visible
24 Jan - 06:25:16 10° SSW 06:28:35 19° SSE 06:31:54 10° ESE daylight
24 Jan - 08:06:28 10° SW 08:11:02 47° SSE 08:15:36 10° ENE daylight
24 Jan - 09:48:18 10° WSW 09:52:29 31° NW 09:56:38 10° NNE daylight
24 Jan - 23:55:36 10° NE 23:56:53 11° NE 23:58:10 10° ENE night (unlit)
25 Jan - 01:33:16 10° NW 01:37:47 79° NE 01:42:26 10° SE visible
25 Jan - 03:15:53 10° WSW 03:19:45 26° SSW 03:23:41 10° SE visible
25 Jan - 04:59:41 10° SW 05:02:34 16° S 05:05:28 10° SE daylight
25 Jan - 06:41:36 10° SW 06:45:26 24° SSE 06:49:17 10° ESE daylight
25 Jan - 08:22:45 10° SW 08:27:31 86° SE 08:32:14 10° NE daylight
25 Jan - 10:05:52 10° W 10:08:35 15° NW 10:11:16 10° NNW daylight
26 Jan - 00:09:17 10° N 00:12:56 24° NE 00:16:38 10° ESE visible
26 Jan - 01:49:46 10° WNW 01:54:13 55° SSW 01:58:47 10° SE visible
26 Jan - 03:33:13 10° WSW 03:36:34 19° SSW 03:39:57 10° SSE visible
26 Jan - 05:16:28 10° SSW 05:19:31 17° S 05:22:34 10° SE daylight
26 Jan - 06:57:48 10° SW 07:02:09 35° SSE 07:06:29 10° E daylight
26 Jan - 08:39:17 10° WSW 08:43:50 48° NW 08:48:21 10° NNE daylight
27 Jan - 00:24:45 10° NNW 00:29:06 51° NE 00:33:34 10° ESE visible
27 Jan - 02:06:42 10° W 02:10:48 33° SSW 02:15:01 10° SE visible
27 Jan - 03:50:32 10° SW 03:53:28 16° S 03:56:27 10° SE visible
27 Jan - 05:32:56 10° SSW 05:36:25 20° SSE 05:39:56 10° ESE daylight
27 Jan - 07:14:03 10° SW 07:18:43 60° SSE 07:23:22 10° ENE daylight
27 Jan - 08:56:16 10° W 09:00:00 23° NW 09:03:44 10° N daylight
27 Jan - 23:01:44 10° NNE 23:04:23 16° NE 23:07:04 10° E night (unlit)
28 Jan - 00:40:55 10° WNW 00:45:26 79° SW 00:50:04 10° SE visible
28 Jan - 02:23:55 10° WSW 02:27:33 22° SSW 02:31:13 10° SE visible
28 Jan - 04:07:34 10° SW 04:10:26 16° S 04:13:19 10° SE visible
28 Jan - 05:49:10 10° SW 05:53:13 27° SSE 05:57:16 10° E daylight
28 Jan - 07:30:25 10° WSW 07:35:08 73° NW 07:39:49 10° NE daylight
28 Jan - 09:14:59 10° WNW 09:16:03 11° NW 09:17:08 10° NW daylight
28 Jan - 23:16:28 10° NNW 23:20:28 33° NE 23:24:33 10° ESE night (unlit)
29 Jan - 00:57:36 10° WNW 01:01:55 43° SSW 01:06:20 10° SE visible
29 Jan - 02:41:17 10° SW 02:44:24 18° S 02:47:33 10° SSE visible
29 Jan - 04:24:12 10° SSW 04:27:22 18° S 04:30:33 10° SE visible
29 Jan - 06:05:23 10° SW 06:09:52 43° SSE 06:14:21 10° ENE daylight
29 Jan - 07:47:05 10° WSW 07:51:23 36° NW 07:55:40 10° NNE daylight
29 Jan - 23:32:15 10° NW 23:36:42 69° NE 23:41:16 10° ESE visible
30 Jan - 01:14:41 10° W 01:18:35 27° SSW 01:22:33 10° SE visible
30 Jan - 02:58:31 10° SW 03:01:21 16° S 03:04:11 10° SE visible
30 Jan - 04:40:32 10° SW 04:44:14 22° SSE 04:47:56 10° ESE visible
30 Jan - 06:21:39 10° SW 06:26:22 77° SE 06:31:05 10° ENE daylight
30 Jan - 08:04:26 10° W 08:07:30 17° NW 08:10:34 10° N daylight
30 Jan - 22:08:32 10° N 22:11:53 21° NE 22:15:18 10° E night (unlit)
30 Jan - 23:48:40 10° WNW 23:53:06 61° SW 23:57:38 10° SE visible
31 Jan - 01:32:00 10° WSW 01:35:22 20° SSW 01:38:47 10° SSE visible
31 Jan - 03:15:23 10° SSW 03:18:18 16° S 03:21:14 10° SE visible
31 Jan - 04:56:45 10° SW 05:00:58 32° SSE 05:05:12 10° E visible
31 Jan - 06:38:07 10° WSW 06:42:42 55° NW 06:47:18 10° NE daylight
31 Jan - 22:23:48 10° NNW 22:28:02 44° NE 22:32:21 10° ESE night (unlit)
01 Feb - 00:05:31 10° W 00:09:39 35° SSW 00:13:53 10° SE visible
01 Feb - 01:49:21 10° SW 01:52:16 16° S 01:55:13 10° SSE visible
01 Feb - 03:31:52 10° SSW 03:35:12 19° SSE 03:38:34 10° ESE visible
01 Feb - 05:12:58 10° SW 05:17:33 53° SSE 05:22:09 10° ENE daylight
01 Feb - 06:54:59 10° WSW 06:58:54 26° NW 07:02:50 10° N daylight
01 Feb - 21:01:14 10° NNE 21:03:21 13° NE 21:05:29 10° E night (unlit)
01 Feb - 22:39:52 10° NW 22:44:20 89° SW 22:48:54 10° SE night (unlit)
